Location: Home
(42.5358°N, 72.7383°W)
Time: 09:34:48
(UTC-04:00)

Kosmos-337 - Pass Details

Date: 07 July 2022
Orbit: 1467 x 1552 km, 74.0° (Epoch: 16 August)

Event Time Altitude Azimuth Distance (km) Brightness Sun altitude
Rises 23:58:57 0° 342° (NNW) 4,733 ? -23.6°
Reaches altitude 10° 00:02:26 10° 352° (N) 3,745 ? -23.7°
Maximum altitude 00:10:27 33° 54° (NE) 2,390 ? -24.0°
Enters shadow 00:17:53 12° 113° (ESE) 3,570 ? -24.3°
